Year,Month,Day,Hour,Minute,Value (Times are PST for temperature in C)
2012,09,03,11,14,16.90
2012,09,03,11,15,16.90
2012,09,03,11,16,16.80
2012,09,03,11,17,16.70
2012,09,03,11,18,16.70
2012,09,03,11,19,16.60
2012,09,03,11,20,16.60
2012,09,03,11,21,16.60
2012,09,03,11,22,16.50
2012,09,03,11,23,16.50
2012,09,03,11,24,16.50
2012,09,03,11,25,16.60
2012,09,03,11,26,16.60
2012,09,03,11,27,16.60
2012,09,03,11,28,16.60
2012,09,03,11,29,16.60
2012,09,03,11,30,16.60
2012,09,03,11,31,16.60
2012,09,03,11,32,16.60
2012,09,03,11,33,16.70
2012,09,03,11,34,16.80
2012,09,03,11,35,16.90
2012,09,03,11,36,17.00
2012,09,03,11,37,17.10
2012,09,03,11,38,17.00
2012,09,03,11,39,16.90
2012,09,03,11,40,16.80
2012,09,03,11,41,16.80
2012,09,03,11,42,16.80
2012,09,03,11,43,16.80
2012,09,03,11,44,16.80
2012,09,03,11,45,16.80
2012,09,03,11,46,16.80
2012,09,03,11,47,16.80
2012,09,03,11,48,16.90
2012,09,03,11,49,17.00
2012,09,03,11,50,17.10
2012,09,03,11,51,17.20
2012,09,03,11,52,17.20
2012,09,03,11,53,17.20
2012,09,03,11,54,17.30
2012,09,03,11,55,17.30
2012,09,03,11,56,17.40
2012,09,03,11,57,17.40
2012,09,03,11,58,17.40
2012,09,03,11,59,17.50
2012,09,03,12,00,17.60
2012,09,03,12,01,17.50
2012,09,03,12,02,17.50
2012,09,03,12,03,17.30
2012,09,03,12,04,17.30
2012,09,03,12,05,17.30
2012,09,03,12,06,17.10
2012,09,03,12,07,17.10
2012,09,03,12,08,17.10
2012,09,03,12,09,17.10
2012,09,03,12,10,17.20
2012,09,03,12,11,17.30
2012,09,03,12,12,17.30
2012,09,03,12,13,17.40
2012,09,03,12,14,17.40
2012,09,03,12,15,17.40
2012,09,03,12,16,17.50
2012,09,03,12,17,17.50
2012,09,03,12,18,17.50
2012,09,03,12,19,17.60
2012,09,03,12,20,17.60
2012,09,03,12,21,17.40
2012,09,03,12,22,17.20
2012,09,03,12,23,17.20
2012,09,03,12,24,17.10
2012,09,03,12,25,17.10
2012,09,03,12,26,17.10
2012,09,03,12,27,17.20
2012,09,03,12,28,17.20
2012,09,03,12,29,17.30
2012,09,03,12,30,17.30
2012,09,03,12,31,17.40
2012,09,03,12,32,17.50
2012,09,03,12,33,17.50
2012,09,03,12,34,17.50
2012,09,03,12,35,17.60
2012,09,03,12,36,17.60
2012,09,03,12,37,17.60
2012,09,03,12,38,17.70
2012,09,03,12,39,17.70
2012,09,03,12,40,17.60
2012,09,03,12,41,17.50
2012,09,03,12,42,17.40
2012,09,03,12,43,17.40
2012,09,03,12,44,17.40
2012,09,03,12,45,17.30
2012,09,03,12,46,17.30
2012,09,03,12,47,17.40
2012,09,03,12,48,17.50
2012,09,03,12,49,17.50
2012,09,03,12,50,17.70
2012,09,03,12,51,17.70
2012,09,03,12,52,17.50
2012,09,03,12,53,17.50
2012,09,03,12,54,17.40
2012,09,03,12,55,17.30
2012,09,03,12,56,17.30
2012,09,03,12,57,17.30
2012,09,03,12,58,17.20
2012,09,03,12,59,17.20
2012,09,03,13,00,17.20
2012,09,03,13,01,17.20
2012,09,03,13,02,17.30
2012,09,03,13,03,17.30
2012,09,03,13,04,17.50
2012,09,03,13,05,17.50
2012,09,03,13,06,17.60
2012,09,03,13,07,17.50
2012,09,03,13,08,17.50
2012,09,03,13,09,17.40
2012,09,03,13,10,17.40
2012,09,03,13,11,17.40
2012,09,03,13,12,17.40
2012,09,03,13,13,17.40
2012,09,03,13,14,17.40
2012,09,03,13,15,17.40
2012,09,03,13,16,17.40
2012,09,03,13,17,17.40
2012,09,03,13,18,17.30
2012,09,03,13,19,17.40
2012,09,03,13,20,17.40
2012,09,03,13,21,17.40
2012,09,03,13,22,17.40
2012,09,03,13,23,17.30
2012,09,03,13,24,17.30
2012,09,03,13,25,17.30
2012,09,03,13,26,17.20
2012,09,03,13,27,17.10
2012,09,03,13,28,17.00
2012,09,03,13,29,16.90
2012,09,03,13,30,16.90
2012,09,03,13,31,16.90
2012,09,03,13,32,16.90
2012,09,03,13,33,16.90
2012,09,03,13,34,16.90
2012,09,03,13,35,17.00
2012,09,03,13,36,17.10
2012,09,03,13,37,17.20
2012,09,03,13,38,17.30
2012,09,03,13,39,17.40
2012,09,03,13,40,17.50
2012,09,03,13,41,17.50
2012,09,03,13,42,17.50
2012,09,03,13,43,17.50
2012,09,03,13,44,17.50
2012,09,03,13,45,17.50
2012,09,03,13,46,17.40
2012,09,03,13,47,17.40
2012,09,03,13,48,17.40
2012,09,03,13,49,17.30
2012,09,03,13,50,17.20
2012,09,03,13,51,17.10
2012,09,03,13,52,17.10
2012,09,03,13,53,17.10
2012,09,03,13,54,17.10
2012,09,03,13,55,17.10
2012,09,03,13,56,17.10
2012,09,03,13,57,17.10
2012,09,03,13,58,17.20
2012,09,03,13,59,17.20
2012,09,03,14,00,17.30
2012,09,03,14,01,17.40
2012,09,03,14,02,17.40
2012,09,03,14,03,17.50
2012,09,03,14,04,17.50
2012,09,03,14,05,17.50
2012,09,03,14,06,17.50
2012,09,03,14,07,17.50
2012,09,03,14,08,17.50
2012,09,03,14,09,17.50
2012,09,03,14,10,17.60
2012,09,03,14,11,17.60
2012,09,03,14,12,17.70
2012,09,03,14,13,17.70
2012,09,03,14,14,17.80
2012,09,03,14,15,17.80
2012,09,03,14,16,17.80
2012,09,03,14,17,17.70
2012,09,03,14,18,17.70
2012,09,03,14,19,17.80
2012,09,03,14,20,17.70
2012,09,03,14,21,17.70
2012,09,03,14,22,17.80
2012,09,03,14,23,17.80
2012,09,03,14,24,17.90
2012,09,03,14,25,17.90
2012,09,03,14,26,18.00
2012,09,03,14,27,18.10
2012,09,03,14,28,18.20
2012,09,03,14,29,18.20
2012,09,03,14,30,18.30
2012,09,03,14,31,18.30
2012,09,03,14,32,18.30
2012,09,03,14,33,18.30
2012,09,03,14,34,18.30
2012,09,03,14,35,18.30
2012,09,03,14,36,18.40
2012,09,03,14,37,18.40
2012,09,03,14,38,18.50
2012,09,03,14,39,18.60
2012,09,03,14,40,18.70
2012,09,03,14,41,18.80
2012,09,03,14,42,18.90
2012,09,03,14,43,19.00
2012,09,03,14,44,19.00
2012,09,03,14,45,18.90
2012,09,03,14,46,18.90
2012,09,03,14,47,19.00
2012,09,03,14,48,19.00
2012,09,03,14,49,19.10
2012,09,03,14,50,19.10
2012,09,03,14,51,19.20
2012,09,03,14,52,19.20
2012,09,03,14,53,19.20
2012,09,03,14,54,19.20
2012,09,03,14,55,19.20
2012,09,03,14,56,19.10
2012,09,03,14,57,19.10
2012,09,03,14,58,19.10
2012,09,03,14,59,19.10
2012,09,03,15,00,19.10
2012,09,03,15,01,19.00
2012,09,03,15,02,18.90
2012,09,03,15,03,18.90
2012,09,03,15,04,18.80
2012,09,03,15,05,18.90
2012,09,03,15,06,18.90
2012,09,03,15,07,18.90
2012,09,03,15,08,18.70
2012,09,03,15,09,18.70
2012,09,03,15,10,18.70
2012,09,03,15,11,18.70
2012,09,03,15,12,18.70
2012,09,03,15,13,18.70
2012,09,03,15,14,18.70
2012,09,03,15,15,18.70
2012,09,03,15,16,18.70
2012,09,03,15,17,18.70
2012,09,03,15,18,18.70
2012,09,03,15,19,18.70
2012,09,03,15,20,18.70
2012,09,03,15,21,18.70
2012,09,03,15,22,18.70
2012,09,03,15,23,18.70
2012,09,03,15,24,18.80
2012,09,03,15,25,18.70
2012,09,03,15,26,18.70
2012,09,03,15,27,18.70
2012,09,03,15,28,18.70
2012,09,03,15,29,18.70
2012,09,03,15,30,18.70
2012,09,03,15,31,18.70
2012,09,03,15,32,18.60
2012,09,03,15,33,18.60
2012,09,03,15,34,18.60
2012,09,03,15,35,18.40
2012,09,03,15,36,18.30
2012,09,03,15,37,18.30
2012,09,03,15,38,18.20
2012,09,03,15,39,18.10
2012,09,03,15,40,18.00
2012,09,03,15,41,18.00
2012,09,03,15,42,17.90
2012,09,03,15,43,17.80
2012,09,03,15,44,17.70
2012,09,03,15,45,17.70
2012,09,03,15,46,17.80
2012,09,03,15,47,17.80
2012,09,03,15,48,17.90
2012,09,03,15,49,17.80
2012,09,03,15,50,17.80
2012,09,03,15,51,17.80
2012,09,03,15,52,17.80
2012,09,03,15,53,17.90
2012,09,03,15,54,18.00
2012,09,03,15,55,18.00
2012,09,03,15,56,18.10
2012,09,03,15,57,18.10
2012,09,03,15,58,18.00
2012,09,03,15,59,17.90
2012,09,03,16,00,17.90
2012,09,03,16,01,17.90
2012,09,03,16,02,18.00
2012,09,03,16,03,18.10
2012,09,03,16,04,18.20
2012,09,03,16,05,18.30
2012,09,03,16,06,18.30
2012,09,03,16,07,18.40
2012,09,03,16,08,18.40
2012,09,03,16,09,18.40
2012,09,03,16,10,18.40
2012,09,03,16,11,18.30
2012,09,03,16,12,18.30
2012,09,03,16,13,18.30
2012,09,03,16,14,18.30
2012,09,03,16,15,18.30
2012,09,03,16,16,18.40
2012,09,03,16,17,18.50
2012,09,03,16,18,18.50
2012,09,03,16,19,18.50
2012,09,03,16,20,18.40
2012,09,03,16,21,18.30
2012,09,03,16,22,18.30
2012,09,03,16,23,18.30
2012,09,03,16,24,18.20
2012,09,03,16,25,18.10
2012,09,03,16,26,18.20
2012,09,03,16,27,18.20
2012,09,03,16,28,18.20
2012,09,03,16,29,18.20
2012,09,03,16,30,18.20
2012,09,03,16,31,18.20
2012,09,03,16,32,18.20
2012,09,03,16,33,18.30
2012,09,03,16,34,18.30
2012,09,03,16,35,18.30
2012,09,03,16,36,18.30
2012,09,03,16,37,18.30
2012,09,03,16,38,18.20
2012,09,03,16,39,18.20
2012,09,03,16,40,18.20
2012,09,03,16,41,18.20
2012,09,03,16,42,18.20
2012,09,03,16,43,18.20
2012,09,03,16,44,18.20
2012,09,03,16,45,18.20
2012,09,03,16,46,18.20
2012,09,03,16,47,18.20
2012,09,03,16,48,18.20
2012,09,03,16,49,18.20
2012,09,03,16,50,18.20
2012,09,03,16,51,18.10
2012,09,03,16,52,18.10
2012,09,03,16,53,18.10
2012,09,03,16,54,18.10
2012,09,03,16,55,18.10
2012,09,03,16,56,18.10
2012,09,03,16,57,18.10
2012,09,03,16,58,18.10
2012,09,03,16,59,18.10
2012,09,03,17,00,18.10
2012,09,03,17,01,18.10
2012,09,03,17,02,18.10
2012,09,03,17,03,18.10
2012,09,03,17,04,18.10
2012,09,03,17,05,18.20
2012,09,03,17,06,18.20
2012,09,03,17,07,18.20
2012,09,03,17,08,18.20
2012,09,03,17,09,18.20
2012,09,03,17,10,18.20
2012,09,03,17,11,18.20
2012,09,03,17,12,18.20
2012,09,03,17,13,18.20
2012,09,03,17,14,18.30
2012,09,03,17,15,18.30
2012,09,03,17,16,18.30
2012,09,03,17,17,18.40
2012,09,03,17,18,18.40
2012,09,03,17,19,18.40
2012,09,03,17,20,18.40
2012,09,03,17,21,18.50
2012,09,03,17,22,18.60
2012,09,03,17,23,18.70
2012,09,03,17,24,18.70
2012,09,03,17,25,18.70
2012,09,03,17,26,18.70
2012,09,03,17,27,18.70
2012,09,03,17,28,18.70
2012,09,03,17,29,18.80
2012,09,03,17,30,18.80
2012,09,03,17,31,18.80
2012,09,03,17,32,18.70
2012,09,03,17,33,18.70
2012,09,03,17,34,18.70
2012,09,03,17,35,18.60
2012,09,03,17,36,18.60
2012,09,03,17,37,18.50
2012,09,03,17,38,18.40
2012,09,03,17,39,18.30
2012,09,03,17,40,18.30
2012,09,03,17,41,18.30
2012,09,03,17,42,18.30
2012,09,03,17,43,18.30
2012,09,03,17,44,18.30
2012,09,03,17,45,18.30
2012,09,03,17,46,18.30
2012,09,03,17,47,18.30
2012,09,03,17,48,18.30
2012,09,03,17,49,18.40
2012,09,03,17,50,18.40
2012,09,03,17,51,18.40
2012,09,03,17,52,18.40
2012,09,03,17,53,18.40
2012,09,03,17,54,18.40
2012,09,03,17,55,18.40
2012,09,03,17,56,18.40
2012,09,03,17,57,18.40
2012,09,03,17,58,18.40
2012,09,03,17,59,18.40
2012,09,03,18,00,18.40
2012,09,03,18,01,18.50
2012,09,03,18,02,18.50
2012,09,03,18,03,18.50
2012,09,03,18,04,18.50
2012,09,03,18,05,18.50
2012,09,03,18,06,18.50
2012,09,03,18,07,18.50
2012,09,03,18,08,18.40
2012,09,03,18,09,18.40
2012,09,03,18,10,18.40
2012,09,03,18,11,18.40
2012,09,03,18,12,18.30
2012,09,03,18,13,18.30
2012,09,03,18,14,18.30
2012,09,03,18,15,18.30
2012,09,03,18,16,18.40
2012,09,03,18,17,18.40
2012,09,03,18,18,18.40
2012,09,03,18,19,18.40
2012,09,03,18,20,18.40
2012,09,03,18,21,18.40
2012,09,03,18,22,18.30
2012,09,03,18,23,18.30
2012,09,03,18,24,18.30
2012,09,03,18,25,18.30
2012,09,03,18,26,18.30
2012,09,03,18,27,18.30
2012,09,03,18,28,18.30
2012,09,03,18,29,18.30
2012,09,03,18,30,18.30
2012,09,03,18,31,18.30
2012,09,03,18,32,18.30
2012,09,03,18,33,18.30
2012,09,03,18,34,18.30
2012,09,03,18,35,18.20
2012,09,03,18,36,18.20
2012,09,03,18,37,18.10
2012,09,03,18,38,18.10
2012,09,03,18,39,18.10
2012,09,03,18,40,18.00
2012,09,03,18,41,18.00
2012,09,03,18,42,17.90
2012,09,03,18,43,17.90
2012,09,03,18,44,17.80
2012,09,03,18,45,17.80
2012,09,03,18,46,17.80
2012,09,03,18,47,17.70
2012,09,03,18,48,17.70
2012,09,03,18,49,17.60
2012,09,03,18,50,17.60
2012,09,03,18,51,17.50
2012,09,03,18,52,17.50
2012,09,03,18,53,17.50
2012,09,03,18,54,17.40
2012,09,03,18,55,17.40
2012,09,03,18,56,17.40
2012,09,03,18,57,17.40
2012,09,03,18,58,17.40
2012,09,03,18,59,17.40
2012,09,03,19,00,17.40
2012,09,03,19,01,17.40
2012,09,03,19,02,17.30
2012,09,03,19,03,17.30
2012,09,03,19,04,17.30
2012,09,03,19,05,17.30
2012,09,03,19,06,17.20
2012,09,03,19,07,17.20
2012,09,03,19,08,17.20
2012,09,03,19,09,17.10
2012,09,03,19,10,17.10
2012,09,03,19,11,17.10
2012,09,03,19,12,17.10
2012,09,03,19,13,17.10
2012,09,03,19,14,17.10
2012,09,03,19,15,17.10
2012,09,03,19,16,17.10
2012,09,03,19,17,17.10
2012,09,03,19,18,17.10
2012,09,03,19,19,17.10
2012,09,03,19,20,17.10
2012,09,03,19,21,17.00
2012,09,03,19,22,17.00
2012,09,03,19,23,17.00
2012,09,03,19,24,17.00
2012,09,03,19,25,17.00
2012,09,03,19,26,16.90
2012,09,03,19,27,16.90
2012,09,03,19,28,16.90
2012,09,03,19,29,16.90
2012,09,03,19,30,16.90
2012,09,03,19,31,16.90
2012,09,03,19,32,16.90
2012,09,03,19,33,16.90
2012,09,03,19,34,16.90
2012,09,03,19,35,16.90
2012,09,03,19,36,16.90
2012,09,03,19,37,16.90
2012,09,03,19,38,16.80
2012,09,03,19,39,16.80
2012,09,03,19,40,16.80
2012,09,03,19,41,16.80
2012,09,03,19,42,16.70
2012,09,03,19,43,16.70
2012,09,03,19,44,16.70
2012,09,03,19,45,16.60
2012,09,03,19,46,16.60
2012,09,03,19,47,16.60
2012,09,03,19,48,16.60
2012,09,03,19,49,16.50
2012,09,03,19,50,16.50
2012,09,03,19,51,16.50
2012,09,03,19,52,16.50
2012,09,03,19,53,16.50
2012,09,03,19,54,16.50
2012,09,03,19,55,16.50
2012,09,03,19,56,16.50
2012,09,03,19,57,16.60
2012,09,03,19,58,16.60
2012,09,03,19,59,16.60
2012,09,03,20,00,16.60
2012,09,03,20,01,16.60
2012,09,03,20,02,16.60
2012,09,03,20,03,16.60
2012,09,03,20,04,16.70
2012,09,03,20,05,16.70
2012,09,03,20,06,16.70
2012,09,03,20,07,16.70
2012,09,03,20,08,16.60
2012,09,03,20,09,16.60
2012,09,03,20,10,16.60
2012,09,03,20,11,16.60
2012,09,03,20,12,16.60
2012,09,03,20,13,16.60
2012,09,03,20,14,16.60
2012,09,03,20,15,16.50
2012,09,03,20,16,16.50
2012,09,03,20,17,16.50
2012,09,03,20,18,16.50
2012,09,03,20,19,16.40
2012,09,03,20,20,16.40
2012,09,03,20,21,16.40
2012,09,03,20,22,16.40
2012,09,03,20,23,16.40
2012,09,03,20,24,16.30
2012,09,03,20,25,16.30
2012,09,03,20,26,16.30
2012,09,03,20,27,16.30
2012,09,03,20,28,16.20
2012,09,03,20,29,16.20
2012,09,03,20,30,16.20
2012,09,03,20,31,16.20
2012,09,03,20,32,16.20
2012,09,03,20,33,16.20
2012,09,03,20,34,16.20
2012,09,03,20,35,16.20
2012,09,03,20,36,16.10
2012,09,03,20,37,16.10
2012,09,03,20,38,16.10
2012,09,03,20,39,16.10
2012,09,03,20,40,16.10
2012,09,03,20,41,16.10
2012,09,03,20,42,16.10
2012,09,03,20,43,16.00
2012,09,03,20,44,16.00
2012,09,03,20,45,16.00
2012,09,03,20,46,16.00
2012,09,03,20,47,16.00
2012,09,03,20,48,16.00
2012,09,03,20,49,16.00
2012,09,03,20,50,15.90
2012,09,03,20,51,15.90
2012,09,03,20,52,15.90
2012,09,03,20,53,15.90
2012,09,03,20,54,15.90
2012,09,03,20,55,15.90
2012,09,03,20,56,15.90
2012,09,03,20,57,15.90
2012,09,03,20,58,15.90
2012,09,03,20,59,15.90
2012,09,03,21,00,15.80
2012,09,03,21,01,15.80
2012,09,03,21,02,15.80
2012,09,03,21,03,15.80
2012,09,03,21,04,15.80
2012,09,03,21,05,15.80
2012,09,03,21,06,15.80
2012,09,03,21,07,15.80
2012,09,03,21,08,15.80
2012,09,03,21,09,15.80
2012,09,03,21,10,15.80
2012,09,03,21,11,15.80
2012,09,03,21,12,15.80
2012,09,03,21,13,15.80
2012,09,03,21,14,15.80
2012,09,03,21,15,15.80
2012,09,03,21,16,15.80
2012,09,03,21,17,15.80
2012,09,03,21,18,15.70
2012,09,03,21,19,15.70
2012,09,03,21,20,15.70
2012,09,03,21,21,15.70
2012,09,03,21,22,15.70
2012,09,03,21,23,15.70
2012,09,03,21,24,15.70
2012,09,03,21,25,15.70
2012,09,03,21,26,15.60
2012,09,03,21,27,15.60
2012,09,03,21,28,15.60
2012,09,03,21,29,15.60
2012,09,03,21,30,15.60
2012,09,03,21,31,15.60
2012,09,03,21,32,15.60
2012,09,03,21,33,15.60
2012,09,03,21,34,15.60
2012,09,03,21,35,15.50
2012,09,03,21,36,15.50
2012,09,03,21,37,15.50
2012,09,03,21,38,15.50
2012,09,03,21,39,15.40
2012,09,03,21,40,15.40
2012,09,03,21,41,15.40
2012,09,03,21,42,15.40
2012,09,03,21,43,15.40
2012,09,03,21,44,15.40
2012,09,03,21,45,15.40
2012,09,03,21,46,15.30
2012,09,03,21,47,15.30
2012,09,03,21,48,15.30
2012,09,03,21,49,15.30
2012,09,03,21,50,15.30
2012,09,03,21,51,15.30
2012,09,03,21,52,15.30
2012,09,03,21,53,15.30
2012,09,03,21,54,15.30
2012,09,03,21,55,15.30
2012,09,03,21,56,15.20
2012,09,03,21,57,15.30
2012,09,03,21,58,15.30
2012,09,03,21,59,15.30
2012,09,03,22,00,15.30
2012,09,03,22,01,15.30
2012,09,03,22,02,15.30
2012,09,03,22,03,15.30
2012,09,03,22,04,15.30
2012,09,03,22,05,15.30
2012,09,03,22,06,15.30
2012,09,03,22,07,15.30
2012,09,03,22,08,15.30
2012,09,03,22,09,15.30
2012,09,03,22,10,15.20
2012,09,03,22,11,15.20
2012,09,03,22,12,15.20
2012,09,03,22,13,15.20
2012,09,03,22,14,15.20
2012,09,03,22,15,15.20
2012,09,03,22,16,15.10
2012,09,03,22,17,15.10
2012,09,03,22,18,15.10
2012,09,03,22,19,15.10
2012,09,03,22,20,15.00
2012,09,03,22,21,15.00
2012,09,03,22,22,15.00
2012,09,03,22,23,15.00
2012,09,03,22,24,15.00
2012,09,03,22,25,15.00
2012,09,03,22,26,15.00
2012,09,03,22,27,15.00
2012,09,03,22,28,14.90
2012,09,03,22,29,14.80
2012,09,03,22,30,14.80
2012,09,03,22,31,14.70
2012,09,03,22,32,14.70
2012,09,03,22,33,14.70
2012,09,03,22,34,14.60
2012,09,03,22,35,14.60
2012,09,03,22,36,14.60
2012,09,03,22,37,14.50
2012,09,03,22,38,14.50
2012,09,03,22,39,14.50
2012,09,03,22,40,14.40
2012,09,03,22,41,14.40
2012,09,03,22,42,14.40
2012,09,03,22,43,14.40
2012,09,03,22,44,14.40
2012,09,03,22,45,14.40
2012,09,03,22,46,14.40
2012,09,03,22,47,14.40
2012,09,03,22,48,14.40
2012,09,03,22,49,14.40
2012,09,03,22,50,14.30
2012,09,03,22,51,14.30
2012,09,03,22,52,14.30
2012,09,03,22,53,14.30
2012,09,03,22,54,14.30
2012,09,03,22,55,14.30
2012,09,03,22,56,14.30
2012,09,03,22,57,14.20
2012,09,03,22,58,14.20
2012,09,03,22,59,14.20
2012,09,03,23,00,14.20
2012,09,03,23,01,14.20
2012,09,03,23,02,14.20
2012,09,03,23,03,14.20
2012,09,03,23,04,14.20
2012,09,03,23,05,14.20
2012,09,03,23,06,14.20
2012,09,03,23,07,14.10
2012,09,03,23,08,14.10
2012,09,03,23,09,14.10
2012,09,03,23,10,14.10
2012,09,03,23,11,14.10
2012,09,03,23,12,14.10
2012,09,03,23,13,14.00
2012,09,03,23,14,14.00
2012,09,03,23,15,14.00
2012,09,03,23,16,14.00
2012,09,03,23,17,13.90
2012,09,03,23,18,13.90
2012,09,03,23,19,13.90
2012,09,03,23,20,13.90
2012,09,03,23,21,13.90
2012,09,03,23,22,13.90
2012,09,03,23,23,13.80
2012,09,03,23,24,13.80
2012,09,03,23,25,13.80
2012,09,03,23,26,13.80
2012,09,03,23,27,13.80
2012,09,03,23,28,13.80
2012,09,03,23,29,13.80
2012,09,03,23,30,13.70
2012,09,03,23,31,13.70
2012,09,03,23,32,13.70
2012,09,03,23,33,13.70
2012,09,03,23,34,13.70
2012,09,03,23,35,13.70
2012,09,03,23,36,13.70
2012,09,03,23,37,13.70
2012,09,03,23,38,13.70
2012,09,03,23,39,13.60
2012,09,03,23,40,13.60
2012,09,03,23,41,13.60
2012,09,03,23,42,13.60
2012,09,03,23,43,13.60
2012,09,03,23,44,13.60
2012,09,03,23,45,13.60
2012,09,03,23,46,13.60
2012,09,03,23,47,13.60
2012,09,03,23,48,13.50
2012,09,03,23,49,13.50
2012,09,03,23,50,13.50
2012,09,03,23,51,13.50
2012,09,03,23,52,13.50
2012,09,03,23,53,13.40
2012,09,03,23,54,13.40
2012,09,03,23,55,13.40
2012,09,03,23,56,13.40
2012,09,03,23,57,13.40
2012,09,03,23,58,13.40
2012,09,03,23,59,13.40
